User: anonymous   Login
Location: Consuma
(43.7833°N, 11.5833°E)
Time: 05:14:51
(UTC+00:00)
Language:

Cosmos 2263 - Orbit

View from above orbital plane
View from above orbital plane
View from above satellite
View from above satellite

Ground track
Ground track

The orbit data is extracted from the following two-line orbital elements,

1 22802U 93059A   20152.52103662 -.00000374 +00000-0 -17388-3 0  9991
2 22802 070.9258 213.2624 0021178 045.9606 314.3255 14.13194452377392
Epoch (UTC): 31 May 2020 12:30:17
Eccentricity: 0.0021178
inclination: 70.9258°
perigee height: 833 km
apogee height: 864 km
right ascension of ascending node: 213.2624°
argument of perigee: 45.9606°
revolutions per day: 14.13194452
mean anomaly at epoch: 314.3255°
orbit number at epoch: 37739

The dashed part of the orbit path shows where the satellite is in the earth's shadow,  

DLR